Weather in Tabuk

Saudi Arabia     28°23′40″N   36°34′16″E
temp.,
°C
wind,
m/s
gust,
m/s
humid.,
%
clouds,
%
prec.,
mm/h
press.,
hPa
HPBL,
m
25 february, thu
thu2500:00+10e34520 0.0 1021129
03:00+9ssw01570 0.0 1020113
06:00+8wnw11610 0.0 102169
09:00+11e01490 0.0 1022272
12:00+14ese11370 0.0 10211104
15:00+17e12260 0.0 10191548
18:00+17se12250 0.0 10191129
21:00+14nne34290 0.0 1020222
26 february, fri
fri2600:00+13nne34310 0.0 1021103
03:00+12e23380 0.0 102074
06:00+11ese34390 0.0 102074
09:00+13se45330 0.0 1021389
12:00+17ese44250 0.0 10201334
15:00+19ese23180 0.0 10171681
18:00+19ene23170 0.0 1016652
21:00+16e69230 0.0 1017321
27 february, sat
sat2700:00+14ese59270 0.0 1017307
03:00+13ese57290 0.0 1016217
06:00+11ese58320 0.0 1016196
09:00+14ese812280 0.0 1016630
12:00+20se89180 0.0 1014912
15:00+23ssw36110 0.0 10103160
18:00+21sw78120 0.0 1010849
21:00+16wsw58210 0.0 1011219
28 february, sun
sun2800:00+14sw46300 0.0 1011158
03:00+12wsw68420 0.0 1010212
06:00+10n46420 0.0 1011146
09:00+13nne711280 0.0 10131158
12:00+18n710260 0.0 10132469
15:00+19n9102320 0.0 10112537
18:00+18n792221 0.0 10131994
21:00+14nnw573111 0.0 1015223
1 march, mon
mon100:00+13nnw610460 0.0 1016252
03:00+11n45580 0.0 1016132
06:00+9nnw12670 0.0 101765
09:00+12e01510 0.0 1018270
12:00+16s23320 0.0 1017914
15:00+20sw14200 0.0 10141771
18:00+20wsw56170 0.0 1014892
21:00+15nw46240 0.0 1016251